Location: Milton Keynes
(52.0316°N, 0.7531°W)
Time: 01:08:43
(UTC+00:00)

ISS - Pass Details

Date: 27 January 2019
Orbit: 403 x 411 km, 51.6° (Epoch: 19 February)

Event Time Altitude Azimuth Distance (km) Brightness Sun altitude
Rises 17:20:25 0° 214° (SW) 2,323 1.1 -6.3°
Reaches altitude 10° 17:22:47 10° 198° (SSW) 1,468 -0.4 -6.6°
Maximum altitude 17:25:23 22° 146° (SSE) 961 -2.0 -7.0°
Drops below altitude 10° 17:28:00 10° 94° (E) 1,479 -1.5 -7.4°
Enters shadow 17:28:21 - 91° (E) 1,597 -1.4 -7.4°
